Погода в Сарай-Гире

Россия / Оренбургская область     53°36′28″N   53°23′36″E
темп.,
°C
ветер,
м/с
пор.,
м/с
влажн.,
%
обл.,
%
осадки,
мм/ч
давл.,
гПа
погр.,
м
23 января, сб
сб2323:00−19сз1210092 0.2 102320
02:00−21св1110084 0.0 102520
05:00−20вюв1210067 0.0 102720
08:00−18ююв339698 0.0 102746
11:00−17ююв489594 0.0 1029235
14:00−14ююв6995100 0.1 1029330
17:00−13ююв71195100 0.5 1029372
20:00−13ююв61195100 0.4 1028338
24 января, вс
вс2423:00−13ююв71195100 0.7 1028309
02:00−11ю5995100 0.8 1025233
05:00−8ю4796100 1.8 1024203
08:00−9ююв4696100 0.6 1026168
11:00−5ююв3497100 1.4 1026101
14:000ююз59100100 0.5 1027270
17:00+1юз59100100 1.4 1026294
20:00−1юз589599 0.0 1028284
25 января, пн
пн2523:00−2юз51095100 0.4 1030291
02:00−5ююз499774 0.0 1031196
05:00−3юз599898 0.0 1030332
08:00−2юз5898100 0.0 1032434
11:00−2ююз5898100 0.1 1032460
14:00−1ююз5795100 0.0 1032492
17:00−1ююз5995100 0.1 1032518
20:00−3ю4897100 0.1 1033358
26 января, вт
вт2623:00−4ю4997100 0.1 1032351
02:00−3ю51096100 0.1 1033540
05:00−3ю51096100 0.1 1032549
08:00−6ю51097100 0.1 1031343
11:00−8ююв51096100 0.1 1032265
14:00−7ю61195100 0.0 1032305
17:00−8ююв6119597 0.0 1031251
20:00−9ююв5119491 0.0 1031208
27 января, ср
ср2723:00−9ююв5129495 0.0 1030276
02:00−9ю51295100 0.0 1030289
05:00−9ююв51195100 0.0 1029263
08:00−7ю61196100 0.1 1027364
11:00−8ююв71293100 0.0 1029326
14:00−7ю61289100 0.0 1029360
17:00−8ююв3596100 0.1 1029143
20:00−9ююв6119296 0.0 1028202